[[{"header":{"parameterUnit":"m.s-1","parameterCategory":1,"la1":30.2991,"la2":30.254,"lo1":-89.0895,"lo2":-89.0444,"dy":0.0017,"dx":0.0017,"nx":28,"ny":28,"refTime":"2026-01-03T09:00:00:Z","depth":0,"parameterNumber":2,"parameterNumberName":"U-component_of_WINDS"},"data":[0,0,0,0,0,0,0,0,0,0,0,0,0,0,0,0,0,0,0,0,0,0,0,0,0,0,0,0,0,0,0,0,0,0,0,0,0,0,0,0,0,0,0,0,0,0,0,0,0,0,0,0,0,0,0,0,0,0,3.0905,3.0905,0,3.0842,3.0841,3.084,3.08,3.0799,3.0799,3.0799,3.0734,3.0733,3.0731,0,0,0,0,0,0,0,0,0,0,0,0,0,3.0994,3.0993,3.0905,3.0905,3.0904,3.0842,3.0841,3.084,3.08,3.0799,3.0799,3.0799,3.0735,3.0733,3.0731,0,0,0,0,0,0,0,0,0,0,0,0,0,3.0945,3.0992,3.0906,3.0876,3.0873,3.0842,3.0841,3.084,3.08,3.0799,3.0799,3.0799,3.0735,3.0733,3.0731,3.0724,0,0,3.0724,3.0723,0,0,0,0,0,0,0,0,3.0948,3.0942,3.0881,3.0878,3.0874,3.0828,3.0848,3.0801,3.08,3.0828,3.0799,3.0798,3.0766,3.0761,3.075,3.0721,3.0719,3.0724,3.0722,3.0722,3.0721,0,0,0,0,0,0,0,3.0952,3.0945,3.088,3.088,3.0876,3.0867,3.086,3.0839,3.08,3.0825,3.0822,3.0815,3.0764,3.0752,3.0748,3.0718,3.0724,3.0722,3.0721,3.072,3.0683,3.0684,0,0,0,0,0,0,3.096,3.0948,3.0882,3.0878,3.0911,3.0866,3.0857,3.0843,3.08,3.0793,3.0815,3.0813,3.0756,3.0751,3.0746,3.0737,3.0722,3.0719,3.0718,3.0683,3.0683,3.0684,0,0,0,0,0,0,3.0962,3.0954,3.0885,3.0912,3.0903,3.0864,3.0849,3.0842,3.0831,3.0792,3.0785,3.0811,3.0756,3.0749,3.0731,3.0734,3.0718,3.0716,3.0683,3.0683,3.0684,3.0718,0,0,0,0,0,0,3.0964,3.0955,3.0951,3.0912,3.0901,3.087,3.0849,3.0841,3.0827,3.0824,3.0786,3.0779,3.0755,3.0734,3.0728,3.0731,3.0715,3.0682,3.0683,3.0683,3.0717,3.072,3.0723,0,0,0,0,0,3.0968,3.0963,3.0951,3.0944,3.0896,3.087,3.0864,3.0836,3.0827,3.0824,3.08,3.0781,3.0735,3.0733,3.0726,3.0727,3.0682,3.0683,3.0683,3.0715,3.0719,3.0723,0,0,0,0,0,0,3.1003,3.0957,3.0944,3.0927,3.0903,3.0864,3.0858,3.0841,3.0819,3.0817,3.0783,3.0775,3.076,3.0742,3.074,3.072,3.0706,3.0706,3.0733,3.0736,3.0739,3.0744,3.0713,0,0,0,0,0,3.1009,3.0991,3.0953,3.0941,3.093,3.0897,3.0884,3.0865,3.0839,3.0828,3.0803,3.0778,3.0759,3.0746,3.0726,3.0714,3.0706,3.0712,3.0715,3.0718,3.0718,3.0712,3.0715,3.0687,3.0687,3.0687,0,0,3.1021,3.0994,3.0985,3.0948,3.0927,3.0911,3.0888,3.0871,3.0859,3.0826,3.0807,3.0788,3.0759,3.0744,3.0737,3.0728,3.0724,3.0719,3.0721,3.072,3.0713,3.0716,3.0719,3.0687,3.0687,3.0687,0,0,3.1034,3.1011,3.1,3.098,3.095,3.0928,3.0925,3.0889,3.0875,3.0856,3.0832,3.0817,3.0783,3.0764,3.075,3.0759,3.0742,3.0754,3.077,3.0765,3.0767,3.0769,3.0774,3.0776,3.0754,3.0754,3.0754,0,3.1052,3.1026,3.0997,3.0982,3.0967,3.0937,3.0927,3.0909,3.0873,3.0864,3.0856,3.0814,3.0792,3.0774,3.0777,3.0766,3.0763,3.0758,3.0769,3.0771,3.0772,3.0776,3.0778,3.0756,3.0755,3.0755,3.0755,0,3.1051,3.1034,3.1029,3.0996,3.0981,3.0968,3.0938,3.0926,3.0909,3.0889,3.0871,3.0844,3.0819,3.0813,3.0795,3.0793,3.0789,3.0775,3.0761,3.0777,3.078,3.0782,3.0758,3.0758,3.0757,3.0757,0,0,3.1083,3.1036,3.1035,3.1021,3.0986,3.0972,3.0959,3.0935,3.0926,3.0903,3.0892,3.0866,3.0854,3.0838,3.0818,3.0814,3.0825,3.0801,3.08,3.0807,3.0823,3.0835,3.0837,3.0813,3.0814,3.0814,3.0826,0,3.1092,3.1067,3.1041,3.1026,3.101,3.0983,3.0972,3.095,3.0931,3.0916,3.0895,3.0878,3.0862,3.0853,3.0847,3.0825,3.0828,3.0824,3.0804,3.0804,3.0813,3.0838,3.0849,3.0862,3.0827,3.0827,3.0828,0,3.1098,3.1078,3.1061,3.103,3.1022,3.1013,3.099,3.0975,3.0951,3.0938,3.0922,3.0901,3.0888,3.0875,3.0857,3.0854,3.0845,3.0833,3.0833,3.0831,3.0817,3.0838,3.0866,3.0868,3.0829,3.0829,3.0829,0,3.1125,3.1093,3.1079,3.1068,3.1031,3.1025,3.101,3.0985,3.0973,3.0953,3.0945,3.0924,3.0913,3.0897,3.0872,3.0865,3.0858,3.0842,3.0847,3.0848,3.0847,3.0848,3.0875,3.084,3.084,3.084,3.084,0,3.1138,3.1129,3.1091,3.1083,3.1073,3.1045,3.1036,3.1018,3.0996,3.0985,3.096,3.095,3.0917,3.0904,3.0885,3.0874,3.0868,3.0858,3.0853,3.0861,3.0863,3.0855,3.0854,3.084,3.084,3.084,3.084,0,3.1166,3.114,3.1124,3.1091,3.1083,3.1077,3.1049,3.1041,3.1021,3.1008,3.1003,3.0972,3.0956,3.093,3.0905,3.0892,3.0885,3.0876,3.0893,3.089,3.0898,3.0898,3.0922,3.0924,3.0887,3.0887,3.0887,0,3.1175,3.1168,3.1135,3.1126,3.1112,3.1097,3.1085,3.1058,3.1047,3.102,3.1015,3.0997,3.098,3.0955,3.0931,3.0913,3.0904,3.0914,3.0901,3.091,3.0906,3.0907,3.0907,3.0917,3.0918,3.0918,3.0918,0,3.1196,3.1185,3.1168,3.1149,3.1136,3.1118,3.11,3.1094,3.1063,3.1052,3.1035,3.1023,3.0998,3.0981,3.096,3.0945,3.0927,3.0923,3.0923,3.0931,3.0942,3.0938,3.0902,3.0922,3.0922,3.0922,3.0921,3.0921,3.1216,3.1209,3.1186,3.1169,3.1153,3.1138,3.1129,3.1109,3.1095,3.1073,3.1058,3.1043,3.1021,3.0991,3.0977,3.0965,3.0957,3.0957,3.0958,3.0959,3.0962,3.0944,3.0961,3.0961,3.0961,3.0961,3.0961,0,3.1237,3.1221,3.1206,3.1182,3.117,3.1155,3.1135,3.1126,3.1113,3.1094,3.1079,3.1061,3.1045,3.1021,3.1003,3.0999,3.099,3.0995,3.0995,3.0993,3.0969,3.0971,3.1002,3.1002,3.1002,3.1002,3.1002,3.1002,3.1246,3.1234,3.1221,3.1202,3.1186,3.1171,3.1162,3.1148,3.1133,3.1114,3.1101,3.1085,3.1065,3.1046,3.1031,3.1025,3.102,3.1028,3.1019,3.0998,3.0994,3.099,3.0992,3.1027,3.1027,3.1043,3.1043,3.1043]},{"header":{"parameterUnit":"m.s-1","parameterCategory":1,"la1":30.2991,"la2":30.254,"lo1":-89.0895,"lo2":-89.0444,"dy":0.0017,"dx":0.0017,"nx":28,"ny":28,"refTime":"2026-01-03T09:00:00:Z","depth":0,"parameterNumber":3,"parameterNumberName":"V-component_of_WINDS"},"data":[0,0,0,0,0,0,0,0,0,0,0,0,0,0,0,0,0,0,0,0,0,0,0,0,0,0,0,0,0,0,0,0,0,0,0,0,0,0,0,0,0,0,0,0,0,0,0,0,0,0,0,0,0,0,0,0,0,0,1.0158,1.0159,0,1.026,1.0261,1.0262,1.0275,1.0274,1.0273,1.0272,1.0379,1.0383,1.0387,0,0,0,0,0,0,0,0,0,0,0,0,0,0.9976,0.9979,1.0158,1.0159,1.016,1.026,1.0261,1.0263,1.0275,1.0274,1.0273,1.0272,1.0378,1.0383,1.0387,0,0,0,0,0,0,0,0,0,0,0,0,0,1.0064,0.998,1.0158,1.0179,1.0181,1.0259,1.0261,1.0263,1.0275,1.0274,1.0272,1.0271,1.0377,1.0382,1.0388,1.0453,0,0,1.0405,1.0408,0,0,0,0,0,0,0,0,1.0059,1.0071,1.0174,1.0177,1.0181,1.0253,1.0236,1.0327,1.0276,1.024,1.0272,1.027,1.0339,1.0347,1.037,1.0458,1.0462,1.0406,1.0409,1.0411,1.0413,0,0,0,0,0,0,0,1.0053,1.0067,1.0198,1.0176,1.018,1.0184,1.0194,1.0254,1.0297,1.0243,1.0244,1.0256,1.034,1.0364,1.0373,1.0464,1.0405,1.041,1.0414,1.0416,1.0609,1.0611,0,0,0,0,0,0,1.0043,1.0061,1.0195,1.0201,1.0115,1.0188,1.02,1.0231,1.0296,1.0304,1.0257,1.0256,1.0355,1.0366,1.0376,1.0456,1.0411,1.0417,1.042,1.0607,1.0609,1.0611,0,0,0,0,0,0,1.0039,1.0055,1.0191,1.0132,1.0149,1.0193,1.0228,1.0234,1.0258,1.0306,1.0314,1.0274,1.0355,1.0368,1.0433,1.046,1.0419,1.0424,1.0605,1.0608,1.061,1.0615,0,0,0,0,0,0,1.0034,1.0053,1.0078,1.0132,1.0152,1.0245,1.0229,1.0237,1.0268,1.0268,1.0324,1.0332,1.0355,1.0425,1.0439,1.0467,1.0429,1.0603,1.0607,1.061,1.0613,1.0618,1.0622,0,0,0,0,0,1.0027,1.0076,1.0079,1.0095,1.0184,1.0247,1.0259,1.0282,1.027,1.0295,1.0326,1.033,1.0455,1.0431,1.0447,1.0477,1.0602,1.0606,1.0609,1.0611,1.0617,1.0622,0,0,0,0,0,0,1.0025,1.0083,1.0087,1.0155,1.0196,1.0249,1.0281,1.0288,1.0334,1.0332,1.036,1.0373,1.0436,1.0464,1.0436,1.0543,1.0527,1.0534,1.0523,1.0529,1.0533,1.0525,1.0434,0,0,0,0,0,1.0032,1.0077,1.0126,1.0181,1.0201,1.0238,1.0266,1.0281,1.0325,1.0342,1.0378,1.0421,1.0469,1.0501,1.0548,1.0617,1.0629,1.0646,1.065,1.0654,1.0659,1.0697,1.0705,1.0624,1.0624,1.0624,0,0,1.0047,1.0085,1.0112,1.0182,1.0215,1.0262,1.0252,1.0303,1.0337,1.035,1.0413,1.044,1.049,1.0557,1.0588,1.0582,1.0684,1.0659,1.0661,1.0665,1.0702,1.0709,1.0716,1.0627,1.0626,1.0626,0,0,1.0099,1.0133,1.0181,1.0215,1.0264,1.0288,1.03,1.0352,1.0371,1.0434,1.0444,1.0487,1.057,1.0604,1.0633,1.0697,1.0703,1.0712,1.0735,1.0771,1.0778,1.0784,1.0806,1.0813,1.0718,1.0718,1.0718,0,1.0112,1.0182,1.0206,1.0255,1.0286,1.0298,1.0348,1.0379,1.0443,1.0464,1.0455,1.0559,1.0594,1.0668,1.0683,1.0707,1.0721,1.0705,1.0775,1.0781,1.0787,1.0808,1.0816,1.0719,1.0719,1.0719,1.0718,0,1.0196,1.0244,1.0278,1.0337,1.0371,1.0421,1.0452,1.0484,1.0496,1.0521,1.0585,1.0627,1.0682,1.0701,1.0714,1.0778,1.0772,1.0769,1.0753,1.0795,1.0815,1.0824,1.072,1.0719,1.0719,1.0719,0,0,1.0249,1.032,1.0332,1.0358,1.0414,1.0452,1.0502,1.0556,1.0582,1.0626,1.0668,1.0738,1.0735,1.0767,1.0784,1.0816,1.0863,1.0809,1.0811,1.0817,1.0935,1.0936,1.0945,1.0867,1.0869,1.087,1.0931,0,1.0306,1.0394,1.0417,1.0492,1.0537,1.0549,1.0593,1.0632,1.0657,1.0699,1.0727,1.0775,1.0768,1.0788,1.082,1.085,1.0887,1.0847,1.0907,1.0909,1.0893,1.0956,1.0958,1.1013,1.0939,1.094,1.0941,0,1.0385,1.0428,1.0507,1.0556,1.0576,1.0615,1.0665,1.0705,1.075,1.0766,1.0801,1.0815,1.0868,1.0849,1.0923,1.0895,1.0921,1.094,1.0942,1.0948,1.0927,1.0963,1.1031,1.1039,1.0954,1.0953,1.0952,0,1.0414,1.0493,1.055,1.0573,1.0632,1.0658,1.0684,1.0728,1.0758,1.0802,1.0822,1.0873,1.09,1.0939,1.0966,1.095,1.1037,1.1021,1.1051,1.105,1.1068,1.1066,1.114,1.1086,1.1086,1.1086,1.1086,0,1.0475,1.0523,1.0563,1.0599,1.0653,1.0679,1.0732,1.0758,1.0797,1.0837,1.0852,1.089,1.0924,1.0967,1.0988,1.1045,1.1058,1.1072,1.1077,1.107,1.1068,1.1087,1.1084,1.1088,1.1088,1.1087,1.1087,0,1.0516,1.0546,1.0609,1.0659,1.0673,1.071,1.0754,1.0789,1.0814,1.0865,1.0879,1.0918,1.097,1.1,1.1066,1.108,1.1142,1.1146,1.1127,1.1129,1.1157,1.1153,1.1245,1.1258,1.1196,1.1196,1.1197,0,1.0553,1.059,1.0644,1.0672,1.0698,1.0743,1.0773,1.0801,1.0832,1.0886,1.0914,1.0966,1.1009,1.109,1.1125,1.1175,1.1179,1.1208,1.1187,1.1179,1.1179,1.1176,1.1179,1.1211,1.1212,1.1212,1.1212,0,1.0614,1.0627,1.067,1.0718,1.0754,1.0794,1.0833,1.0855,1.0889,1.0924,1.0976,1.1009,1.1075,1.1126,1.1179,1.1206,1.1215,1.1219,1.1228,1.1221,1.1208,1.1215,1.1135,1.1216,1.1216,1.1216,1.1216,1.1215,1.0654,1.0687,1.073,1.0777,1.081,1.0846,1.0881,1.091,1.0953,1.1008,1.1022,1.1076,1.112,1.1191,1.122,1.1263,1.1259,1.1273,1.1276,1.1279,1.1279,1.1202,1.1273,1.1273,1.1273,1.1273,1.1273,0,1.0715,1.0743,1.0787,1.0841,1.0878,1.0882,1.0926,1.0957,1.1005,1.1044,1.1086,1.1145,1.1195,1.1233,1.1284,1.1311,1.1317,1.1324,1.1322,1.1328,1.1281,1.1267,1.1319,1.1319,1.1319,1.1319,1.1319,1.1319,1.0752,1.0807,1.0825,1.0897,1.0925,1.0977,1.1002,1.1035,1.1067,1.1132,1.1173,1.1198,1.1237,1.1291,1.1337,1.1347,1.1365,1.1371,1.1381,1.1336,1.1331,1.1327,1.1314,1.1375,1.1375,1.1425,1.1426,1.1426]}]]